Location: Unspecified
(52.1384°N, 8.6525°W)
Time: 18:42:59
(UTC+00:00)

AO-27 - Visible Passes

Search period start: 16 January 2021 00:00
Search period end: 26 January 2021 00:00
Orbit: 784 x 798 km, 98.9° (Epoch: 15 January)

Date Brightness Start Highest point End Pass type
(mag) Time Alt. Az. Time Alt. Az. Time Alt. Az.
16 Jan 8.3 07:08:25 10° NNE 07:13:34 60° ESE 07:18:40 10° S visible
16 Jan 8.6 18:32:26 10° S 18:37:30 51° W 18:42:35 10° NNW visible
17 Jan 9.4 06:39:29 10° NNE 06:44:15 35° E 06:48:59 10° SSE visible
17 Jan 7.7 18:03:04 10° SSE 18:08:17 86° WSW 18:13:31 10° NNW visible
17 Jan 10.7 19:45:36 10° WSW 19:48:32 15° W 19:51:30 10° NW visible
18 Jan 10.3 06:10:52 10° NE 06:14:49 21° E 06:18:44 10° SE visible
18 Jan 7.6 07:49:37 10° NNE 07:54:47 68° WNW 07:59:56 10° SSW visible
18 Jan 7.7 17:34:05 10° SE 17:39:11 58° ENE 17:44:18 10° N visible
18 Jan 10.0 19:14:45 10° SSW 19:19:01 25° W 19:23:18 10° NW visible
19 Jan 10.9 05:43:03 10° ENE 05:45:14 13° E 05:47:26 10° ESE visible
19 Jan 8.0 07:20:26 10° NNE 07:25:39 74° ESE 07:30:50 10° S visible
19 Jan 9.0 18:44:43 10° S 18:49:37 42° W 18:54:34 10° NNW visible
20 Jan 9.0 06:51:25 10° NNE 06:56:23 43° E 07:01:19 10° S visible
20 Jan 8.0 18:15:10 10° S 18:20:21 71° WSW 18:25:34 10° NNW visible
20 Jan 10.9 19:58:49 10° WSW 20:00:47 12° W 20:02:46 10° WNW visible
21 Jan 9.9 06:22:39 10° NE 06:27:00 26° E 06:31:19 10° SSE visible
21 Jan 7.6 17:46:03 10° SSE 17:51:12 71° ENE 17:56:24 10° NNW visible
21 Jan 10.3 19:27:21 10° SW 19:31:13 21° W 19:35:04 10° NW visible
22 Jan 10.7 05:54:24 10° NE 05:57:29 16° E 06:00:33 10° SE visible
22 Jan 7.7 07:32:29 10° NNE 07:37:43 89° ESE 07:42:54 10° SSW visible
22 Jan 9.4 18:57:03 10° SSW 19:01:46 34° W 19:06:29 10° NNW visible
23 Jan 8.6 07:03:24 10° NNE 07:08:30 54° E 07:13:34 10° S visible
23 Jan 8.4 18:27:20 10° S 18:32:27 57° WSW 18:37:35 10° NNW visible
24 Jan 9.6 06:34:31 10° NNE 06:39:10 32° E 06:43:47 10° SSE visible
24 Jan 7.7 17:58:03 10° SSE 18:03:15 86° ENE 18:08:28 10° NNW visible
24 Jan 10.6 19:40:07 10° SW 19:43:25 17° W 19:46:44 10° NW visible
25 Jan 10.4 06:06:00 10° NE 06:09:42 19° E 06:13:23 10° SE visible
25 Jan 7.6 07:44:33 10° NNE 07:49:46 76° WNW 07:54:56 10° SSW visible
25 Jan 9.8 19:09:29 10° SSW 19:13:55 28° W 19:18:22 10° NW visible
